TimeCST,TemperatureF,Dew PointF,Humidity,Sea Level PressureIn,VisibilityMPH,Wind Direction,Wind SpeedMPH,Gust SpeedMPH,PrecipitationIn,Events,Conditions,WindDirDegrees,DateUTC
12:52 AM,32.0,21.9,66,30.15,10.0,NNW,16.1,-,N/A,,Overcast,340,2013-11-26 06:52:00
1:13 AM,32.0,21.0,64,30.11,10.0,NNW,18.4,-,N/A,,Overcast,330,2013-11-26 07:13:00
1:52 AM,30.9,21.0,67,30.15,10.0,NNW,15.0,-,N/A,,Overcast,330,2013-11-26 07:52:00
2:52 AM,30.0,21.0,69,30.18,10.0,NNW,19.6,25.3,N/A,,Overcast,340,2013-11-26 08:52:00
3:52 AM,28.0,19.0,69,30.19,10.0,NNW,25.3,29.9,N/A,,Overcast,340,2013-11-26 09:52:00
4:52 AM,26.1,16.0,66,30.21,10.0,NNW,20.7,28.8,N/A,,Overcast,340,2013-11-26 10:52:00
5:52 AM,25.0,15.1,66,30.24,10.0,NNW,25.3,35.7,N/A,,Overcast,340,2013-11-26 11:52:00
6:43 AM,21.0,9.0,60,30.22,10.0,NNW,24.2,32.2,N/A,,Mostly Cloudy,340,2013-11-26 12:43:00
6:52 AM,19.9,9.0,62,30.28,10.0,NNW,19.6,29.9,N/A,,Scattered Clouds,340,2013-11-26 12:52:00
7:52 AM,19.0,10.0,68,30.31,10.0,NNW,23.0,-,N/A,,Clear,340,2013-11-26 13:52:00
8:52 AM,19.9,10.0,65,30.34,10.0,NNW,23.0,28.8,N/A,,Clear,330,2013-11-26 14:52:00
9:52 AM,21.0,9.0,60,30.36,10.0,NNW,24.2,32.2,N/A,,Scattered Clouds,340,2013-11-26 15:52:00
10:52 AM,23.0,8.1,53,30.36,10.0,NNW,24.2,33.4,N/A,,Mostly Cloudy,340,2013-11-26 16:52:00
11:52 AM,24.1,5.0,44,30.35,10.0,NNW,29.9,35.7,N/A,,Clear,330,2013-11-26 17:52:00
12:52 PM,25.0,5.0,43,30.33,10.0,NNW,26.5,34.5,N/A,,Clear,340,2013-11-26 18:52:00
1:52 PM,26.1,6.1,43,30.33,10.0,NNW,23.0,38.0,N/A,,Partly Cloudy,330,2013-11-26 19:52:00
2:52 PM,25.0,6.1,45,30.33,10.0,NNW,26.5,36.8,N/A,,Clear,340,2013-11-26 20:52:00
3:52 PM,24.1,6.1,46,30.35,10.0,NNW,21.9,34.5,N/A,,Partly Cloudy,330,2013-11-26 21:52:00
4:52 PM,21.9,6.1,51,30.37,10.0,NNW,20.7,27.6,N/A,,Clear,330,2013-11-26 22:52:00
5:52 PM,19.9,6.1,55,30.38,10.0,NNW,19.6,-,N/A,,Clear,330,2013-11-26 23:52:00
6:52 PM,19.0,6.1,57,30.39,10.0,NNW,16.1,-,N/A,,Clear,330,2013-11-27 00:52:00
7:52 PM,17.1,7.0,65,30.41,10.0,North,12.7,-,N/A,,Clear,350,2013-11-27 01:52:00
8:52 PM,16.0,7.0,68,30.42,10.0,North,16.1,-,N/A,,Clear,350,2013-11-27 02:52:00
9:52 PM,14.0,6.1,71,30.43,10.0,North,11.5,-,N/A,,Clear,350,2013-11-27 03:52:00
10:52 PM,12.0,6.1,77,30.43,10.0,North,8.1,-,N/A,,Clear,350,2013-11-27 04:52:00
11:52 PM,10.0,3.9,76,30.44,10.0,NNW,8.1,-,N/A,,Clear,330,2013-11-27 05:52:00